Welcome to the New NWS' Forecast!
Most changes are behind the scenes, but click here for differences you might notice.

Regional Weather Roundup (RWR)

Issued by National Weather Service (NWS)

                            
597 
ASCA44 KEWX 150420
RWRMX 

LATIN AMERICA AND CARIBBEAN REGIONAL WEATHER ROUNDUP
NATIONAL WEATHER SERVICE AUSTIN/SAN ANTONIO TX
1100 PM CDT TUE AUG 14 2018

NOTE: "FAIR" INDICATED FEW OR NO CLOUDS BELOW 12,000 FEET WITH NO
SIGNIFICANT WEATHER AND/OR OBSTRUCTIONS TO VISIBILITY.

BAJA CALIFORNIA
  
CITY           SKY/WX    TMP DP  RH WIND       PRES   REMARKS
LA PAZ         PTCLDY    81  68  65 S12       29.86R                  
MEXICALI       CLEAR     88  68  51 S7        29.71R HX  91           
S.J. DEL CABO  PTCLDY    81  68  65 CALM      29.86R                  
TIJUANA        CLEAR     70  64  83 CALM      29.91R                  

NORTHWESTERN MEXICO
  
CITY           SKY/WX    TMP DP  RH WIND       PRES   REMARKS
CULIACAN       CLOUDY    79  75  89 CALM      29.86R THUNDER          
HERMOSILLO     PTCLDY    84  73  70 E5        29.86R HX  91           
CD. JUAREZ     CLEAR     84  45  24 CALM      29.97R                  
LOS MOCHIS     PTCLDY    86  72  62 SW5       29.83R HX  92           

NORTHEASTERN MEXICO
  
CITY           SKY/WX    TMP DP  RH WIND       PRES   REMARKS
CHIHUAHUA      PTCLDY    72  59  64 S6        30.08R                  
MONCLOVA         N/A    N/A N/A N/A MISG        N/A                   
MONTERREY      CLEAR     84  64  51 E14       29.92R                  
REYNOSA        CLEAR     82  70  65 SE14      29.93R                  
SALTILLO       CLEAR     75  50  41 NE9       30.16R                  
TORREON        CLEAR     84  54  34 CALM      30.00R                  
CD. VICTORIA   CLEAR     82  66  57 S14       29.95R                  

WESTERN MEXICO
  
CITY           SKY/WX    TMP DP  RH WIND       PRES   REMARKS
AGUASCALIENTES PTCLDY    64  54  68 SW7       30.27R                  
COLIMA           N/A    N/A N/A N/A MISG        N/A                   
DEL BAJIO      MOCLDY    64  61  88 CALM      30.29S                  
GUADALAJARA    PTCLDY    68  55  64 NW5       30.18R                  
MAZATLAN       MOCLDY    81  79  94 NE3       29.87R                  
P. VALLARTA    MOCLDY    77  77 100 NE3       29.90R                  
URUAPAN          N/A    N/A N/A N/A MISG        N/A                   
ZACATECAS      CLOUDY    70  48  46 S7        30.28R                  

CENTRAL MEXICO
  
CITY           SKY/WX    TMP DP  RH WIND       PRES   REMARKS
CUERNAVACA       N/A    N/A N/A N/A MISG        N/A                   
MEXICO CITY    MOCLDY    64  52  63 E10       30.32R                  
MORELIA        PTCLDY    64  57  77 SW6       30.24R                  
POZA RICA        N/A    N/A N/A N/A MISG        N/A                   
QUERETARO      MOCLDY    61  57  88 N5        30.32R                  
S. LUIS POTOSI PTCLDY    64  57  77 CALM      30.24R                  
TAMPICO        CLEAR     82  77  83 SE10      29.93R HX  91           
TOLUCA         MOCLDY    55  50  82 NE3       30.40R                  

SOUTHERN MEXICO
  
CITY           SKY/WX    TMP DP  RH WIND       PRES   REMARKS
ACAPULCO       PTCLDY    81  73  78 E2        29.91R                  
B. DE HUATULCO   N/A    N/A N/A N/A MISG        N/A                   
P. ESCONDIDO   CLOUDY    79  70  73 NE6       30.03R                  
VERACRUZ       PTCLDY    82  75  78 E3        29.96R                  

YUCATAN PENINSULA
  
CITY           SKY/WX    TMP DP  RH WIND       PRES   REMARKS
CAMPECHE       CLEAR     79  77  94 CALM      29.97R                  
CANCUN         MOCLDY    81  75  83 E3        30.03R                  
CHETUMAL         N/A    N/A N/A N/A MISG        N/A                   
CD. DEL CARMEN   N/A    N/A N/A N/A MISG        N/A                   
COZUMEL        PTCLDY    79  77  94 E5        30.00R                  
MERIDA         PTCLDY    82  72  69 E8        30.00R                  
MINATITLAN     PTCLDY    84  81  89 NE6       29.92  HX  98           
TAPACHULA      MOCLDY    77  73  88 CALM      29.93R                  
TUX. GUTIERREZ MOCLDY    75  70  83 SE12      30.02                   

CENTRAL AMERICA
  
CITY           SKY/WX    TMP DP  RH WIND       PRES   REMARKS
MANAGUA        PTCLDY    77  72  83 SE5       29.92S                  

CARIBBEAN
  
CITY           SKY/WX    TMP DP  RH WIND       PRES   REMARKS
ARUBA          MOCLDY    82  75  78 E21       29.89S                  
CURACAO        PTCLDY    82  73  74 SE14      29.92S                  
KINGSTON       PTCLDY    84  72  65 NE8       29.94S                  
NASSAU         PTCLDY    84  75  74 E7        30.09R HX  92           
SAN JUAN       PTCLDY    81  75  83 E9        30.02F                  
SANTO DOMINGO  PTCLDY    75  75 100 N5        30.00S                  
ST. CROIX      CLEAR     81  75  83 NE10      30.02F                  
ST. MAARTEN    LGT RAIN  82  75  78 E12       30.00S                  
ST. THOMAS     CLEAR     82  75  78 E14       30.01F                  

$$